TimeCDT,TemperatureF,Dew PointF,Humidity,Sea Level PressureIn,VisibilityMPH,Wind Direction,Wind SpeedMPH,Gust SpeedMPH,PrecipitationIn,Events,Conditions,WindDirDegrees,DateUTC
12:15 AM,38.3,29.5,71,30.01,10.0,Calm,Calm,-,N/A,,Overcast,0,2013-10-27 05:15:00
12:35 AM,38.3,29.3,70,30.00,10.0,West,3.5,-,N/A,,Overcast,270,2013-10-27 05:35:00
12:55 AM,37.8,29.3,72,29.99,10.0,Calm,Calm,-,N/A,,Overcast,0,2013-10-27 05:55:00
1:15 AM,37.6,29.3,72,29.99,10.0,Calm,Calm,-,N/A,,Overcast,0,2013-10-27 06:15:00
1:35 AM,36.7,28.9,74,29.99,10.0,Calm,Calm,-,N/A,,Mostly Cloudy,0,2013-10-27 06:35:00
1:55 AM,35.6,28.4,75,29.99,10.0,Calm,Calm,-,N/A,,Scattered Clouds,0,2013-10-27 06:55:00
2:15 AM,34.0,28.4,80,29.99,10.0,Calm,Calm,-,N/A,,Clear,0,2013-10-27 07:15:00
2:35 AM,33.1,27.5,80,29.99,10.0,Calm,Calm,-,N/A,,Clear,0,2013-10-27 07:35:00
2:55 AM,33.4,27.5,79,29.98,10.0,WSW,3.5,-,N/A,,Clear,250,2013-10-27 07:55:00
3:15 AM,32.5,27.1,80,29.98,10.0,WSW,4.6,-,N/A,,Scattered Clouds,250,2013-10-27 08:15:00
3:35 AM,32.0,26.6,80,29.97,10.0,SW,3.5,-,N/A,,Clear,230,2013-10-27 08:35:00
3:55 AM,31.3,26.2,82,29.96,10.0,SW,3.5,-,N/A,,Clear,230,2013-10-27 08:55:00
4:15 AM,31.3,26.2,82,29.96,10.0,Calm,Calm,-,N/A,,Clear,0,2013-10-27 09:15:00
4:35 AM,29.1,25.5,86,29.96,10.0,Calm,Calm,-,N/A,,Clear,0,2013-10-27 09:35:00
4:55 AM,27.0,25.0,92,29.96,10.0,Calm,Calm,-,N/A,,Clear,0,2013-10-27 09:55:00
5:15 AM,28.2,25.3,89,29.96,10.0,SW,3.5,-,N/A,,Scattered Clouds,230,2013-10-27 10:15:00
5:35 AM,29.5,26.1,87,29.96,10.0,SW,3.5,-,N/A,,Mostly Cloudy,230,2013-10-27 10:35:00
5:55 AM,31.1,26.2,82,29.96,10.0,WSW,3.5,-,N/A,,Overcast,240,2013-10-27 10:55:00
6:15 AM,30.9,25.7,81,29.96,10.0,Calm,Calm,-,N/A,,Overcast,0,2013-10-27 11:15:00
6:35 AM,28.0,24.8,88,29.96,10.0,Calm,Calm,-,N/A,,Mostly Cloudy,0,2013-10-27 11:35:00
6:55 AM,27.3,25.0,91,29.94,10.0,Calm,Calm,-,N/A,,Scattered Clouds,0,2013-10-27 11:55:00
7:15 AM,25.7,24.3,94,29.94,10.0,Calm,Calm,-,N/A,,Clear,0,2013-10-27 12:15:00
7:35 AM,25.3,23.7,94,29.94,10.0,SSW,3.5,-,N/A,,Clear,210,2013-10-27 12:35:00
7:55 AM,26.8,25.0,93,29.95,10.0,SSW,4.6,-,N/A,,Clear,210,2013-10-27 12:55:00
8:15 AM,28.6,25.7,89,29.95,10.0,SW,3.5,-,N/A,,Clear,220,2013-10-27 13:15:00
8:35 AM,29.8,26.6,88,29.95,10.0,SW,4.6,-,N/A,,Clear,220,2013-10-27 13:35:00
8:55 AM,31.6,27.1,83,29.94,10.0,SW,5.8,-,N/A,,Clear,230,2013-10-27 13:55:00
9:15 AM,33.1,27.7,81,29.95,10.0,SW,5.8,-,N/A,,Clear,230,2013-10-27 14:15:00
9:35 AM,34.3,27.7,77,29.94,10.0,SW,6.9,-,N/A,,Clear,220,2013-10-27 14:35:00
9:55 AM,36.5,27.7,70,29.94,10.0,SW,9.2,-,N/A,,Clear,230,2013-10-27 14:55:00
10:15 AM,37.0,27.3,68,29.94,10.0,WSW,8.1,-,N/A,,Clear,240,2013-10-27 15:15:00
10:35 AM,38.3,27.3,65,29.93,10.0,SW,11.5,-,N/A,,Clear,220,2013-10-27 15:35:00
10:55 AM,39.2,27.3,62,29.93,10.0,WSW,6.9,-,N/A,,Clear,240,2013-10-27 15:55:00
11:15 AM,41.2,27.5,58,29.91,10.0,SW,12.7,-,N/A,,Clear,220,2013-10-27 16:15:00
11:35 AM,43.2,27.0,53,29.91,10.0,SW,13.8,18.4,N/A,,Clear,230,2013-10-27 16:35:00
11:55 AM,42.8,26.6,53,29.90,10.0,SW,10.4,20.7,N/A,,Clear,230,2013-10-27 16:55:00
12:15 PM,44.8,27.1,50,29.89,10.0,SW,15.0,-,N/A,,Clear,220,2013-10-27 17:15:00
12:35 PM,45.5,26.2,47,29.88,10.0,SW,17.3,20.7,N/A,,Clear,230,2013-10-27 17:35:00
12:55 PM,45.9,26.8,47,29.87,10.0,WSW,15.0,19.6,N/A,,Clear,250,2013-10-27 17:55:00
1:15 PM,46.8,27.0,46,29.86,10.0,SW,15.0,19.6,N/A,,Clear,220,2013-10-27 18:15:00
1:35 PM,47.5,27.0,45,29.85,10.0,WSW,11.5,18.4,N/A,,Clear,240,2013-10-27 18:35:00
1:55 PM,48.6,27.0,43,29.84,10.0,SW,13.8,18.4,N/A,,Clear,220,2013-10-27 18:55:00
2:15 PM,49.5,26.8,41,29.84,10.0,SSW,12.7,16.1,N/A,,Clear,210,2013-10-27 19:15:00
2:35 PM,49.8,26.8,41,29.83,10.0,WSW,11.5,17.3,N/A,,Clear,240,2013-10-27 19:35:00
2:55 PM,50.4,26.6,40,29.83,10.0,SW,11.5,-,N/A,,Clear,230,2013-10-27 19:55:00
3:15 PM,50.9,26.6,39,29.82,10.0,WSW,11.5,20.7,N/A,,Clear,240,2013-10-27 20:15:00
3:35 PM,50.9,25.0,36,29.83,10.0,SW,12.7,-,N/A,,Clear,230,2013-10-27 20:35:00
3:55 PM,51.4,26.2,38,29.83,10.0,SW,11.5,16.1,N/A,,Clear,230,2013-10-27 20:55:00
4:15 PM,51.8,26.6,38,29.83,10.0,SW,10.4,-,N/A,,Clear,220,2013-10-27 21:15:00
4:36 PM,51.8,26.6,38,29.83,10.0,SSW,11.5,-,N/A,,Clear,210,2013-10-27 21:36:00
4:57 PM,51.8,26.6,38,29.84,10.0,SW,6.9,-,N/A,,Clear,220,2013-10-27 21:57:00
5:20 PM,50.0,26.6,40,29.85,10.0,SSW,3.5,-,N/A,,Clear,210,2013-10-27 22:20:00
5:35 PM,48.6,27.5,44,29.85,10.0,SW,3.5,-,N/A,,Clear,220,2013-10-27 22:35:00
5:55 PM,45.5,27.5,49,29.86,10.0,Calm,Calm,-,N/A,,Clear,0,2013-10-27 22:55:00
6:15 PM,43.7,28.0,54,29.87,10.0,Calm,Calm,-,N/A,,Clear,0,2013-10-27 23:15:00
6:35 PM,41.9,29.5,61,29.88,10.0,Calm,Calm,-,N/A,,Scattered Clouds,0,2013-10-27 23:35:00
6:55 PM,38.5,29.3,70,29.89,10.0,Calm,Calm,-,N/A,,Scattered Clouds,0,2013-10-27 23:55:00
7:15 PM,37.6,29.5,73,29.90,10.0,Calm,Calm,-,N/A,,Overcast,0,2013-10-28 00:15:00
7:35 PM,36.9,29.1,74,29.91,10.0,Calm,Calm,-,N/A,,Scattered Clouds,0,2013-10-28 00:35:00
7:55 PM,35.6,29.1,77,29.93,10.0,Calm,Calm,-,N/A,,Clear,0,2013-10-28 00:55:00
8:15 PM,33.3,28.0,81,29.94,10.0,Calm,Calm,-,N/A,,Scattered Clouds,0,2013-10-28 01:15:00
8:35 PM,33.6,28.6,82,29.95,10.0,Calm,Calm,-,N/A,,Scattered Clouds,0,2013-10-28 01:35:00
8:55 PM,38.8,28.2,66,29.97,10.0,North,4.6,-,N/A,,Clear,350,2013-10-28 01:55:00
9:15 PM,38.7,28.4,67,29.98,10.0,North,6.9,-,N/A,,Clear,360,2013-10-28 02:15:00
9:35 PM,39.7,29.3,66,30.00,10.0,North,6.9,-,N/A,,Clear,360,2013-10-28 02:35:00
9:55 PM,40.5,30.2,67,30.02,10.0,North,11.5,18.4,N/A,,Clear,10,2013-10-28 02:55:00
10:15 PM,39.2,29.7,69,30.03,10.0,North,12.7,17.3,N/A,,Clear,10,2013-10-28 03:15:00
10:35 PM,38.7,28.8,68,30.04,10.0,NNE,10.4,-,N/A,,Clear,20,2013-10-28 03:35:00
10:55 PM,38.3,28.4,68,30.05,10.0,North,10.4,-,N/A,,Clear,10,2013-10-28 03:55:00
11:15 PM,37.8,28.2,68,30.06,10.0,NNE,9.2,-,N/A,,Clear,20,2013-10-28 04:15:00
11:35 PM,37.4,28.4,70,30.07,10.0,NNE,8.1,-,N/A,,Clear,20,2013-10-28 04:35:00
11:55 PM,36.0,28.0,73,30.08,10.0,North,6.9,-,N/A,,Clear,10,2013-10-28 04:55:00